Regional Weather Roundup
Issued by NWS

Home | Current Version | Previous Version | Text Only | Print | Product List | Glossary On
Versions: 1 2 3 4 5 6 7 8 9 10 11 12 13 14 15 16 17 18 19 20 21 22 23 24 25 26 27 28 29 30 31 32 33 34 35 36 37 38 39 40 41 42 43 44 45 46 47 48 49 50
000
ASUS44 KMEG 252100
RWRTN
TENNESSEE HOURLY STATE WEATHER ROUNDUP
NATIONAL WEATHER SERVICE MEMPHIS TN
400 PM CDT SUN JUN 25 2017

TNZ002-004-019-021-049-052-054-088>092-252200-
WEST TENNESSEE

CITY           SKY/WX    TMP DP  RH WIND       PRES   REMARKS
MEMPHIS INTL   MOSUNNY   86  55  34 N8        30.19F
NWS MEMPHIS      N/A     84 N/A N/A MISG        N/A
JACKSON        SUNNY     85  49  28 N9        30.20F
$$

TNZ008-025-027-028-033-062-065-066-252200-
NORTH MIDDLE TENNESSEE

CITY           SKY/WX    TMP DP  RH WIND       PRES   REMARKS
NASHVILLE      MOSUNNY   83  45  26 NW10G21   30.18F
CLARKSVILLE    SUNNY     81  49  32 NW6G17    30.18F
SMYRNA         SUNNY     82  48  30 N14       30.18F
CROSSVILLE     SUNNY     76  48  37 N7        30.21F
$$

TNZ061-075-076-078-094-096-097-252200-
SOUTH MIDDLE TENNESSEE

CITY           SKY/WX    TMP DP  RH WIND       PRES   REMARKS
$$

TNZ017-018-042-046-047-252200-
NORTHEAST TENNESSEE

CITY           SKY/WX    TMP DP  RH WIND       PRES   REMARKS
TRI CITIES     MOSUNNY   78  52  40 W10       30.15F
$$

TNZ012-013-036-069-073-074-252200-
CENTRAL EAST TENNESSEE

CITY           SKY/WX    TMP DP  RH WIND       PRES   REMARKS
KNOXVILLE      MOSUNNY   78  52  40 N7        30.14F
OAK RIDGE      SUNNY     82  47  29 VRB3      30.16F
GATLINBURG     PTSUNNY   75  55  50 NE3       30.15F
$$

TNZ083-085-099-252200-
SOUTHEAST TENNESSEE

CITY           SKY/WX    TMP DP  RH WIND       PRES   REMARKS
CHATTANOOGA    PTSUNNY   79  57  46 N8        30.14F
$$

SKY/WX REPORTED AS FAIR MEANS FEW OR NO CLOUDS BELOW
12 THOUSAND FEET.





USA.gov is the U.S. government's official web portal to all federal, state and local government web resources and services.